2023/09/06 00:00:00,11.7,22.4
2023/09/06 00:10:00,11.9,22.1
2023/09/06 00:20:00,12.3,22.3
2023/09/06 00:30:00,12.7,22.2
2023/09/06 00:40:00,12.6,22.3
2023/09/06 00:50:00,13.0,21.9
2023/09/06 01:00:00,13.3,22.1
2023/09/06 01:10:00,15.2,22.0
2023/09/06 01:20:00,16.9,21.9
2023/09/06 01:30:00,17.1,21.8
2023/09/06 01:40:00,17.3,22.0
2023/09/06 01:50:00,17.3,21.8
2023/09/06 02:00:00,17.5,21.9
2023/09/06 02:10:00,17.6,21.6
2023/09/06 02:20:00,18.1,21.6
2023/09/06 02:30:00,18.5,21.7
2023/09/06 02:40:00,19.0,21.8
2023/09/06 02:50:00,19.6,21.6
2023/09/06 03:00:00,19.9,21.5
2023/09/06 03:10:00,17.9,21.6
2023/09/06 03:20:00,14.8,21.5
2023/09/06 03:30:00,17.9,21.7
2023/09/06 03:40:00,20.4,21.6
2023/09/06 03:50:00,19.9,21.6
2023/09/06 04:00:00,19.6,21.6
2023/09/06 04:10:00,19.8,21.6
2023/09/06 04:20:00,19.6,21.6
2023/09/06 04:30:00, 9.8,21.6
2023/09/06 04:40:00, 5.2,21.5
2023/09/06 04:50:00, 0.0,21.8
2023/09/06 05:00:00, 0.0,21.8
2023/09/06 05:10:00, 0.0,22.0
2023/09/06 05:20:00,17.5,21.6
2023/09/06 05:30:00,18.6,22.1
2023/09/06 05:40:00,18.5,22.1
2023/09/06 05:50:00,18.4,21.8
2023/09/06 06:00:00,18.4,21.8
2023/09/06 06:10:00,18.6,22.0
2023/09/06 06:20:00,18.5,21.9
2023/09/06 06:30:00,18.5,22.2
2023/09/06 06:40:00,18.4,22.3
2023/09/06 06:50:00,18.0,22.5
2023/09/06 07:00:00,18.2,22.7
2023/09/06 07:10:00,18.4,23.0
2023/09/06 07:20:00,18.8,23.3
2023/09/06 07:30:00,18.9,23.6
2023/09/06 07:40:00,19.4,23.9
2023/09/06 07:50:00,19.9,24.3
2023/09/06 08:00:00,20.2,24.7
2023/09/06 08:10:00,20.4,24.8
2023/09/06 08:20:00,20.5,25.2
2023/09/06 08:30:00,20.6,25.8
2023/09/06 08:40:00,20.8,25.8
2023/09/06 08:50:00, 4.5,25.6
2023/09/06 09:00:00, 0.7,25.7
2023/09/06 09:10:00, 3.2,25.7
2023/09/06 09:20:00, 0.0,25.7
2023/09/06 09:30:00, 5.3,26.4
2023/09/06 09:40:00,15.3,26.4
2023/09/06 09:50:00, 3.9,26.6
2023/09/06 10:00:00,---,26.8
2023/09/06 10:10:00,19.7,27.0
2023/09/06 10:20:00,19.0,27.8
2023/09/06 10:30:00,16.5,27.9
2023/09/06 10:40:00,19.4,27.7
2023/09/06 10:50:00,17.1,25.6
2023/09/06 11:00:00,16.6,24.7
2023/09/06 11:10:00,15.9,24.7
2023/09/06 11:20:00,15.3,25.1
2023/09/06 11:30:00,17.6,25.7
2023/09/06 11:40:00,17.9,26.9
2023/09/06 11:50:00, 0.0,27.8
2023/09/06 12:00:00,---,27.8
2023/09/06 12:10:00,19.1,27.2
2023/09/06 12:20:00,20.1,26.2
2023/09/06 12:30:00,13.1,25.7
2023/09/06 12:40:00,18.1,25.6
2023/09/06 12:50:00,18.6,26.2
2023/09/06 13:00:00,19.2,26.4
2023/09/06 13:10:00,19.8,26.2
2023/09/06 13:20:00,20.3,26.0
2023/09/06 13:30:00,20.4,25.6
2023/09/06 13:40:00,20.7,25.7
2023/09/06 13:50:00,20.9,25.8
2023/09/06 14:00:00,20.9,25.6
2023/09/06 14:10:00,20.9,26.1
2023/09/06 14:20:00,20.8,27.0
2023/09/06 14:30:00,19.3,28.4
2023/09/06 14:40:00,20.8,26.4
2023/09/06 14:50:00,20.5,27.8
2023/09/06 15:00:00,20.7,27.9
2023/09/06 15:10:00,20.4,28.7
2023/09/06 15:20:00,20.6,26.6
2023/09/06 15:30:00,18.4,27.8
2023/09/06 15:40:00,19.1,27.9
2023/09/06 15:50:00,19.7,27.5
2023/09/06 16:00:00,20.0,27.0
2023/09/06 16:10:00,20.0,26.5
2023/09/06 16:20:00,19.9,25.6
2023/09/06 16:30:00,20.2,25.6
2023/09/06 16:40:00,20.3,25.6
2023/09/06 16:50:00,20.1,25.0
2023/09/06 17:00:00,20.1,24.9
2023/09/06 17:10:00,19.9,24.7
2023/09/06 17:20:00,19.8,24.7
2023/09/06 17:30:00,19.7,24.5
2023/09/06 17:40:00,19.3,24.4
2023/09/06 17:50:00,18.7,24.3
2023/09/06 18:00:00,18.7,23.9
2023/09/06 18:10:00,18.1,23.8
2023/09/06 18:20:00,17.1,23.7
2023/09/06 18:30:00,15.5,23.5
2023/09/06 18:40:00, 9.4,22.9
2023/09/06 18:50:00, 3.0,22.5
2023/09/06 19:00:00, 0.0,22.3
2023/09/06 19:10:00, 0.0,22.3
2023/09/06 19:20:00, 0.0,22.3
2023/09/06 19:30:00, 0.0,22.0
2023/09/06 19:40:00, 0.0,21.8
2023/09/06 19:50:00, 0.0,21.8
2023/09/06 20:00:00, 0.0,22.0
2023/09/06 20:10:00, 0.0,21.8
2023/09/06 20:20:00, 0.0,21.7
2023/09/06 20:30:00, 0.0,21.7
2023/09/06 20:40:00, 0.0,21.8
2023/09/06 20:50:00, 0.0,21.8
2023/09/06 21:00:00, 0.0,21.6
2023/09/06 21:10:00, 0.0,21.6
2023/09/06 21:20:00, 0.0,21.6
2023/09/06 21:30:00, 0.0,21.8
2023/09/06 21:40:00, 0.0,21.6
2023/09/06 21:50:00, 0.0,21.4
2023/09/06 22:00:00, 0.0,21.4
2023/09/06 22:10:00, 0.0,21.4
2023/09/06 22:20:00, 0.0,21.4
2023/09/06 22:30:00, 0.0,21.2
2023/09/06 22:40:00, 0.0,21.3
2023/09/06 22:50:00, 0.0,21.3
2023/09/06 23:00:00, 0.0,20.9
2023/09/06 23:10:00, 0.0,21.0
2023/09/06 23:20:00, 0.0,20.8
2023/09/06 23:30:00, 0.0,20.6
2023/09/06 23:40:00, 0.0,20.5
2023/09/06 23:50:00, 0.0,20.4
